Location: Madrid
(40.4000°N, 3.6830°W)
Time: 07:17:26
(UTC+01:00)

ISS - Pass Details

Date: 30 November 2020
Orbit: 418 x 420 km, 51.6° (Epoch: 04 December)

Event Time Altitude Azimuth Distance (km) Brightness Sun altitude
Rises 18:10:42 0° 293° (WNW) 2,362 0.8 -4.5°
Reaches altitude 10° 18:13:42 10° 322° (NW) 1,499 -0.8 -5.0°
Maximum altitude 18:15:23 13° 352° (N) 1,324 -1.4 -5.3°
Drops below altitude 10° 18:17:04 10° 22° (NNE) 1,499 -1.4 -5.6°
Enters shadow 18:18:32 - 40° (NE) 1,871 -1.0 -5.9°
